Volver al catálogo

MARCOPOLO 2 R/B

PAM-D

ActivoGTO
NORAD 20764·ROCKET BODY·🇺🇸 United States

Lanzado Aug 18, 1990 desde Cape Canaveral Space Force Station

Loading…

TLE

ObsoletoSource: Space-Track

Época: Sep 13, 2026, 22:25 UTC

1 20764U 90074C   26256.93417685 -.00000084  00000-0  64125-3 0  9997
2 20764  20.7813 214.6509 7254279 160.6532 256.3137  2.18683518285732

Sigue MARCOPOLO 2 R/B en tiempo real con AllMySat

Download on the App Store